Home   Weather   Shymkent   Past weeks

Flag for Kazakhstan Past Weather in Shymkent, Kazakhstan — Yesterday and Last 2 Weeks

Now
77 °F

Sunny.


Feels Like: 78 °F
Forecast: 55 / 83 °F
Wind: 8 mph from Northeast

Location: Shymkent Airport

Current Time: Apr 24, 2017 at 7:36:03 pm

Latest Report: Apr 24, 2017 at 7:00 pm


Visibility: 10 mi

Pressure: 29.95 "Hg (28.26 "Hg at 506m altitude)

Humidity: 28%

Dew Point: 41 °F

Location of ShymkentLocation

Past Weather in Shymkent — Graph

°F

Shymkent Temperature Yesterday

Maximum temperature yesterday: 75 °F (at 4:00 pm)
Minimum temperature yesterday: 48 °F (at 5:00 am)
Average temperature yesterday: 62 °F

High & Low Weather Summary for the Past Weeks

 TemperatureHumidityPressure
High82 °F (Apr 15, 4:30 pm)100% (Apr 12, 10:30 pm)30.42 "Hg (Apr 12, 10:30 pm)
Low43 °F (Apr 14, 2:00 am)12% (Apr 15, 1:00 pm)29.80 "Hg (Apr 15, 4:00 pm)
Average61 °F65%30.05 "Hg
* Reported Apr 9 6:00 pm — Apr 24 6:00 pm, Shymkent, Weather by CustomWeather, © 2017

Note: Actual official high and low records may vary slightly from our data, if they occured in-between our weather recording intervals... More about our weather records

Advertising

Shymkent Weather History for the Previous 24 Hours

Scroll right to see more
 ConditionsComfort  
Time TempWeatherWind HumidityBarometerVisibility
6:00 pm
Mon, Apr 24
81 °FSunny.10 mph28%29.95 "Hg10 mi
5:30 pm81 °FSunny.8 mph26%29.95 "Hg10 mi
5:00 pm81 °FSunny.8 mph28%29.95 "Hg10 mi
4:30 pm81 °FSunny.8 mph26%29.98 "Hg10 mi
4:00 pm81 °FSunny.8 mph24%29.98 "Hg10 mi
3:30 pm82 °FSunny.13 mph20%29.98 "Hg10 mi
3:00 pm81 °FSunny.13 mph23%29.98 "Hg10 mi
2:30 pm81 °FSunny.13 mph26%30.01 "Hg10 mi
2:00 pm81 °FSunny.6 mph28%30.01 "Hg10 mi
1:30 pm79 °FSunny.6 mph24%30.04 "Hg10 mi
1:00 pm79 °FSunny.6 mph30%30.04 "Hg10 mi
12:30 pm77 °FSunny.8 mph32%30.04 "Hg10 mi
12:00 pm77 °FSunny.10 mph30%30.07 "Hg10 mi
11:30 am75 °FSunny.6 mph29%30.07 "Hg10 mi
11:00 am75 °FSunny.8 mph29%30.07 "Hg10 mi
10:30 am73 °FSunny.13 mph36%30.07 "Hg10 mi
9:30 am68 °FPassing clouds.3 mph35%30.07 "HgN/A
8:30 am61 °FSunny.1 mph48%30.09 "Hg10 mi
8:00 am55 °FSunny.6 mph59%30.09 "Hg10 mi
7:30 am54 °FPassing clouds.3 mph63%30.09 "HgN/A
7:00 am50 °FSunny.1 mph71%30.09 "Hg10 mi
6:30 am50 °FSunny.1 mph71%30.09 "Hg10 mi
6:00 am52 °FClear.3 mph72%30.09 "Hg10 mi
5:30 am52 °FClear.1 mph72%30.09 "Hg10 mi
5:00 am52 °FClear.1 mph77%30.09 "Hg10 mi
4:30 am52 °FClear.1 mph77%30.09 "Hg10 mi
4:00 am55 °FClear.1 mph67%30.12 "Hg10 mi
3:30 am55 °FClear.3 mph72%30.12 "Hg10 mi
2:30 am55 °FClear.6 mph72%30.15 "Hg10 mi
2:00 am57 °FClear.6 mph67%30.15 "Hg10 mi
1:30 am57 °FClear.8 mph67%30.15 "Hg10 mi
1:00 am55 °FClear.10 mph72%30.15 "Hg4 mi
12:30 am57 °FClear.10 mph67%30.18 "Hg4 mi
12:00 am57 °FClear.6 mph67%30.18 "Hg4 mi
11:30 pm
Sun, Apr 23
55 °FClear.3 mph72%30.18 "Hg4 mi
11:00 pm61 °FClear.3 mph59%30.18 "Hg4 mi
10:30 pm59 °FClear.6 mph63%30.18 "Hg10 mi
10:00 pm61 °FClear.3 mph59%30.18 "Hg10 mi
9:30 pm63 °FClear.3 mph56%30.18 "Hg10 mi
9:00 pm64 °FClear.3 mph52%30.18 "Hg10 mi
8:30 pm66 °FClear.1 mph46%30.18 "Hg10 mi
8:00 pm68 °FSunny.3 mph43%30.18 "Hg10 mi
7:00 pm72 °FSunny.1 mph33%30.18 "Hg10 mi
Weather by CustomWeather, © 2017

See weather overviewHow to use our weather pages